FW9268 Weather Reports


Display with metric or nautical units.
time (UTC)temp
F
wind
direction
speed
MPH
gust
MPH
rain 1hr
in
rain 24hr
in
rain mn
in
humidity
%
barometer
mb
20260508053039 36 0 0.0 2.0 0.00 0.00 0.00 61 1017.3
20260508053034 36 264 0.0 2.0 0.00 0.00 0.00 61 1011.0
20260508051555 36 0 0.0 2.0 0.00 0.00 0.00 61 1017.3
20260508051522 36 265 0.0 2.0 0.00 0.00 0.00 62 1011.1
20260508050042 37 0 0.0 2.0 0.00 0.00 0.00 61 1017.4
20260508050019 37 265 0.0 2.0 0.00 0.00 0.00 62 1011.1
20260508044547 37 0 0.0 1.0 0.00 0.00 0.00 60 1017.4
20260508044519 37 265 0.0 1.0 0.00 0.00 0.00 60 1011.3
20260508043039 37 0 0.0 0.0 0.00 0.00 0.00 60 1017.5
20260508043019 37 265 0.0 0.0 0.00 0.00 0.00 60 1011.4
20260508041537 37 0 0.0 0.0 0.00 0.00 0.00 62 1017.6
20260508041520 37 265 0.0 0.0 0.00 0.00 0.00 63 1011.5
20260508040048 38 0 0.0 0.0 0.00 0.00 0.00 60 1017.7
20260508040018 38 265 0.0 0.0 0.00 0.00 0.00 60 1011.5
20260508034547 38 0 0.0 2.0 0.00 0.00 0.00 59 1017.8
20260508034524 38 265 0.0 2.0 0.00 0.00 0.00 59 1011.6
20260508033045 38 0 0.0 0.0 0.00 0.00 0.00 62 1017.8
20260508033024 38 265 0.0 0.0 0.00 0.00 0.00 62 1011.7
20260508031546 40 0 0.0 0.0 0.00 0.00 0.00 51 1017.7
20260508031518 40 265 0.0 0.0 0.00 0.00 0.00 52 1011.5
20260508030038 41 0 0.0 0.0 0.00 0.00 0.00 48 1017.8
20260508030019 41 265 0.0 0.0 0.00 0.00 0.00 49 1011.7
20260508024559 41 0 0.0 0.0 0.00 0.00 0.00 48 1017.8
20260508024522 41 265 0.0 0.0 0.00 0.00 0.00 49 1011.8
20260508023042 42 0 0.0 0.0 0.00 0.00 0.00 46 1017.8
20260508023016 42 265 0.0 0.0 0.00 0.00 0.00 46 1011.7
20260508021543 43 0 0.0 0.0 0.00 0.00 0.00 43 1017.7
20260508021526 43 265 0.0 0.0 0.00 0.00 0.00 43 1011.6
20260508020047 44 0 0.0 0.0 0.00 0.00 0.00 42 1017.6
20260508020014 44 265 0.0 0.0 0.00 0.00 0.00 42 1011.5
20260508014545 45 0 0.0 0.0 0.00 0.00 0.00 45 1017.5
20260508014514 45 265 0.0 0.0 0.00 0.00 0.00 45 1011.4
20260508013037 46 265 0.0 2.0 0.00 0.00 0.00 41 1017.4
20260508013013 46 265 0.0 2.0 0.00 0.00 0.00 42 1011.3
20260508011544 47 0 0.0 4.0 0.00 0.00 0.00 38 1017.3
20260508011515 47 265 0.0 4.0 0.00 0.00 0.00 39 1011.3
20260508010048 48 267 2.0 9.0 0.00 0.00 0.00 37 1017.2
20260508010027 48 267 2.0 8.0 0.00 0.00 0.00 37 1011.2
20260508004548 49 265 4.0 12.0 0.00 0.00 0.00 35 1017.3
20260508004511 49 265 5.0 12.0 0.00 0.00 0.00 35 1011.2
20260508003036 49 280 1.0 6.0 0.00 0.00 0.00 35 1017.0
20260508003011 49 280 2.0 6.0 0.00 0.00 0.00 36 1011.0
20260508001543 49 252 1.0 10.0 0.00 0.00 0.00 35 1017.0
20260508001511 49 252 1.0 7.0 0.00 0.00 0.00 35 1011.0
20260508000042 49 300 4.0 10.0 0.00 0.00 0.00 34 1017.1
20260508000011 49 292 5.0 9.0 0.00 0.00 0.00 35 1011.0
20260507234539 49 228 2.0 16.0 0.00 0.00 0.00 34 1017.0
20260507234511 49 223 3.0 10.0 0.00 0.00 0.00 34 1011.0
20260507233037 50 244 5.0 16.0 0.00 0.00 0.00 32 1017.0
20260507233010 50 243 5.0 16.0 0.00 0.00 0.00 33 1011.0
20260507231539 50 257 5.0 13.0 0.00 0.00 0.00 32 1017.1
20260507231509 50 267 5.0 13.0 0.00 0.00 0.00 33 1011.1
20260507230048 50 221 3.0 12.0 0.00 0.00 0.00 32 1017.2
20260507230019 50 221 3.0 12.0 0.00 0.00 0.00 33 1011.1
20260507224540 50 220 3.0 11.0 0.00 0.00 0.00 32 1017.2
20260507224509 50 220 4.0 11.0 0.00 0.00 0.00 32 1011.2
20260507223038 50 249 5.0 15.0 0.00 0.00 0.00 33 1017.3
20260507223007 50 288 5.0 15.0 0.00 0.00 0.00 34 1011.2
20260507221541 50 321 1.0 5.0 0.00 0.00 0.00 35 1017.2
20260507221504 50 321 1.0 5.0 0.00 0.00 0.00 36 1011.2
20260507220047 49 334 3.0 9.0 0.00 0.00 0.00 34 1017.5
20260507220003 49 335 2.0 8.0 0.00 0.00 0.00 35 1011.5
20260507214540 49 0 3.0 10.0 0.00 0.00 0.00 34 1017.5
20260507214502 49 232 2.0 9.0 0.00 0.00 0.00 36 1011.5
20260507213043 49 229 3.0 9.0 0.00 0.00 0.00 38 1017.5
20260507213001 49 230 3.0 9.0 0.00 0.00 0.00 36 1011.5
20260507211600 49 290 4.0 9.0 0.00 0.00 0.00 36 1011.5
20260507211542 48 302 2.0 9.0 0.00 0.00 0.00 35 1017.5
20260507210104 48 285 2.0 8.0 0.00 0.00 0.00 34 1011.6
20260507210041 48 285 3.0 8.0 0.00 0.00 0.00 34 1017.6
20260507204558 48 266 5.0 9.0 0.00 0.00 0.00 35 1011.8
20260507204538 48 267 2.0 8.0 0.00 0.00 0.00 34 1017.8
20260507203105 49 306 5.0 14.0 0.00 0.00 0.00 35 1017.8
20260507203059 49 296 6.0 14.0 0.00 0.00 0.00 38 1011.8
20260507201618 49 293 3.0 9.0 0.00 0.00 0.00 37 1012.0
20260507201539 49 294 4.0 11.0 0.00 0.00 0.00 37 1018.1
20260507200108 49 275 3.0 14.0 0.00 0.00 0.00 41 1012.0
20260507200040 49 0 4.0 14.0 0.00 0.00 0.00 40 1018.1
20260507194553 49 313 3.0 15.0 0.00 0.00 0.00 35 1012.3
20260507194537 49 0 5.0 15.0 0.00 0.00 0.00 35 1018.3
20260507193052 48 322 1.0 5.0 0.00 0.00 0.00 36 1012.2
20260507193043 48 348 1.0 5.0 0.00 0.00 0.00 37 1018.4
20260507191548 47 323 2.0 13.0 0.00 0.00 0.00 38 1012.4
20260507191542 47 323 4.0 13.0 0.00 0.00 0.00 38 1018.4
20260507190051 46 273 1.0 6.0 0.00 0.00 0.00 41 1012.5
20260507190046 46 273 1.0 6.0 0.00 0.00 0.00 38 1018.5
20260507184544 46 217 5.0 10.0 0.00 0.00 0.00 41 1012.5
20260507184538 46 217 6.0 12.0 0.00 0.00 0.00 41 1018.5
20260507183043 46 264 7.0 14.0 0.00 0.00 0.00 43 1012.8
20260507183039 46 242 7.0 14.0 0.00 0.00 0.00 43 1018.7
20260507181542 46 271 3.0 9.0 0.00 0.00 0.00 41 1012.7
20260507181539 46 286 3.0 9.0 0.00 0.00 0.00 41 1018.6
20260507180043 45 250 3.0 11.0 0.00 0.00 0.00 43 1018.7
20260507180039 45 248 3.0 9.0 0.00 0.00 0.00 43 1012.9
20260507174548 45 243 4.0 11.0 0.00 0.00 0.00 45 1013.1
20260507174544 45 243 5.0 12.0 0.00 0.00 0.00 45 1018.9
20260507173109 44 274 5.0 11.0 0.00 0.00 0.00 45 1018.9
20260507173038 44 274 4.0 11.0 0.00 0.00 0.00 46 1013.1
20260507171542 46 216 2.0 12.0 0.00 0.00 0.00 54 1019.1
20260507171535 46 215 1.0 11.0 0.00 0.00 0.00 55 1013.3
20260507170039 44 259 6.0 12.0 0.00 0.00 0.00 48 1019.3
20260507170030 44 259 6.0 12.0 0.00 0.00 0.00 48 1013.5
20260507164537 43 244 2.0 10.0 0.00 0.00 0.00 49 1019.4
20260507164528 42 244 2.0 10.0 0.00 0.00 0.00 49 1013.7
20260507163042 42 248 5.0 12.0 0.00 0.00 0.00 51 1019.5
20260507163030 42 250 5.0 12.0 0.00 0.00 0.00 51 1013.8
20260507161548 43 284 4.0 8.0 0.00 0.00 0.00 53 1019.7
20260507161530 43 284 3.0 8.0 0.00 0.00 0.00 53 1013.8
20260507160048 42 290 3.0 10.0 0.00 0.00 0.00 54 1019.7
20260507160027 42 290 3.0 8.0 0.00 0.00 0.00 54 1014.0
20260507154540 42 259 3.0 12.0 0.00 0.00 0.00 55 1019.8
20260507154528 42 259 2.0 12.0 0.00 0.00 0.00 55 1014.1
20260507153038 42 289 3.0 9.0 0.00 0.00 0.00 58 1019.9
20260507153023 42 313 4.0 9.0 0.00 0.00 0.00 59 1014.2
20260507151536 41 229 3.0 11.0 0.00 0.00 0.00 60 1019.9
20260507151524 41 231 3.0 11.0 0.00 0.00 0.00 60 1014.3
20260507150043 41 215 4.0 10.0 0.00 0.00 0.00 61 1019.9
20260507150019 41 221 3.0 10.0 0.00 0.00 0.00 62 1014.3
20260507144539 41 261 5.0 11.0 0.00 0.00 0.00 60 1020.0
20260507144525 41 239 5.0 11.0 0.00 0.00 0.00 60 1014.3
20260507143051 40 211 4.0 10.0 0.00 0.00 0.00 63 1020.2
20260507143015 40 212 4.0 10.0 0.00 0.00 0.00 61 1014.5
20260507141547 40 241 3.0 11.0 0.00 0.00 0.00 63 1020.4
20260507141513 40 242 5.0 11.0 0.00 0.00 0.00 64 1014.7
20260507140037 40 272 2.0 9.0 0.00 0.00 0.00 66 1020.4
20260507140009 40 242 2.0 8.0 0.00 0.00 0.00 66 1014.7
20260507134544 39 257 3.0 9.0 0.00 0.00 0.00 64 1020.5
20260507134504 39 257 4.0 9.0 0.00 0.00 0.00 65 1014.8
20260507133108 38 240 2.0 7.0 0.00 0.00 0.00 66 1020.4
20260507133100 38 238 2.0 7.0 0.00 0.00 0.00 66 1014.8
20260507131556 38 273 3.0 7.0 0.00 0.00 0.00 68 1014.8
20260507131543 38 275 3.0 7.0 0.00 0.00 0.00 68 1020.5
20260507130106 37 244 1.0 8.0 0.00 0.00 0.00 70 1014.9
20260507130053 37 248 1.0 8.0 0.00 0.00 0.00 69 1020.5
20260507124607 37 243 0.0 4.0 0.00 0.00 0.00 71 1014.9
20260507124537 37 0 0.0 5.0 0.00 0.00 0.00 70 1020.5
20260507123102 37 241 1.0 5.0 0.00 0.00 0.00 69 1014.7
20260507123040 37 241 0.0 5.0 0.00 0.00 0.00 69 1020.4
20260507121556 37 236 1.0 4.0 0.00 0.00 0.00 69 1014.8
20260507121543 37 236 0.0 3.0 0.00 0.00 0.00 69 1020.4
20260507120042 36 236 1.0 3.0 0.00 0.00 0.00 70 1014.7
20260507114550 36 236 1.0 5.0 0.00 0.00 0.00 71 1020.2
20260507114538 36 236 1.0 4.0 0.00 0.00 0.00 72 1014.6
20260507113040 36 0 0.0 3.0 0.00 0.00 0.00 70 1020.2
20260507113036 36 237 0.0 3.0 0.00 0.00 0.00 70 1014.6
20260507111538 36 237 0.0 2.0 0.00 0.00 0.00 71 1020.1
20260507111534 36 237 0.0 2.0 0.00 0.00 0.00 71 1014.5
20260507110041 36 237 0.0 3.0 0.00 0.00 0.00 69 1020.2
20260507110032 36 237 0.0 3.0 0.00 0.00 0.00 69 1014.5
20260507104536 36 238 1.0 5.0 0.00 0.00 0.00 68 1020.1
20260507104530 36 238 1.0 5.0 0.00 0.00 0.00 69 1014.5
20260507103045 36 238 1.0 3.0 0.00 0.00 0.00 69 1020.2
20260507103029 36 238 1.0 3.0 0.00 0.00 0.00 69 1014.5
20260507101540 36 238 1.0 3.0 0.00 0.00 0.00 67 1020.2
20260507101537 36 238 1.0 3.0 0.00 0.00 0.00 67 1014.5
20260507100039 36 0 0.0 3.0 0.00 0.00 0.00 67 1020.2
20260507094544 36 239 1.0 5.0 0.00 0.00 0.00 66 1020.2
20260507094526 36 239 1.0 4.0 0.00 0.00 0.00 66 1014.6
20260507093037 36 242 2.0 7.0 0.00 0.00 0.00 65 1020.3
20260507093025 36 242 1.0 7.0 0.00 0.00 0.00 66 1014.6
20260507091541 36 0 0.0 2.0 0.00 0.00 0.00 66 1020.2
20260507091523 36 243 0.0 2.0 0.00 0.00 0.00 66 1014.6
20260507090042 36 0 0.0 3.0 0.00 0.00 0.00 66 1020.4
20260507090023 36 243 0.0 3.0 0.00 0.00 0.00 67 1014.6
20260507084540 36 0 0.0 3.0 0.00 0.00 0.00 68 1020.4
20260507084520 36 244 0.0 3.0 0.00 0.00 0.00 68 1014.8
20260507083036 36 244 0.0 2.0 0.00 0.00 0.00 67 1020.4
20260507083019 36 244 0.0 3.0 0.00 0.00 0.00 67 1014.8
20260507081539 36 244 0.0 2.0 0.00 0.00 0.00 65 1020.4
20260507081520 36 244 0.0 2.0 0.00 0.00 0.00 65 1014.8
20260507080049 36 0 0.0 2.0 0.00 0.00 0.00 65 1020.4
20260507080017 36 244 0.0 2.0 0.00 0.00 0.00 66 1014.8
20260507074547 36 0 0.0 4.0 0.00 0.00 0.00 65 1020.6
20260507074514 36 244 0.0 4.0 0.00 0.00 0.00 65 1015.0
20260507073036 36 0 0.0 3.0 0.00 0.00 0.00 65 1020.6
20260507073013 36 244 0.0 3.0 0.00 0.00 0.00 65 1014.9
20260507071537 36 0 0.0 3.0 0.00 0.00 0.00 66 1020.7
20260507071512 36 244 0.0 1.0 0.00 0.00 0.00 67 1015.0
20260507070051 36 0 0.0 4.0 0.00 0.00 0.00 64 1020.8
20260507070012 36 244 0.0 4.0 0.00 0.00 0.00 65 1015.1
20260507064547 36 0 0.0 2.0 0.00 0.00 0.00 64 1021.0
20260507064509 36 244 0.0 2.0 0.00 0.00 0.00 65 1015.3
20260507063038 36 0 0.0 3.0 0.00 0.00 0.00 64 1021.0
20260507063006 36 244 0.0 3.0 0.00 0.00 0.00 65 1015.4
20260507061539 37 244 1.0 2.0 0.00 0.00 0.00 66 1021.2
20260507061504 37 244 0.0 3.0 0.00 0.00 0.00 67 1015.5
20260507060036 37 0 0.0 1.0 0.00 0.00 0.00 63 1021.2
20260507060012 37 244 0.0 1.0 0.00 0.00 0.00 64 1015.6
20260507054602 37 244 0.0 2.0 0.00 0.00 0.00 65 1015.6
20260507054543 37 0 0.0 2.0 0.00 0.00 0.00 64 1021.5